SWA4131 KSAN-KSMF

Flight info

Callsign SWA4131
Flight time 1h 18m
Altitude 38000
Route PADRZ2 EHF NURAY SUUTR4
Aircraft B736/M-SDE2E3FGHIRWXY/LB1

Departure

Time 2026-05-05 16:40
Airport San Diego International Airport (KSAN)

Arrival

Time 2026-05-05 17:59
Airport Sacramento International Airport (KSMF)
Time Latitude Longitude Altitude Speed Heading
2026-05-05 16:09 32.73121 -117.19160 26 ft 0 kts 300°
2026-05-05 16:28 32.73118 -117.19152 26 ft 2 kts 299°
2026-05-05 16:28 32.73109 -117.19136 31 ft 2 kts 305°
2026-05-05 16:28 32.73097 -117.19124 27 ft 2 kts 13°
2026-05-05 16:28 32.73091 -117.19126 29 ft 0 kts 21°
2026-05-05 16:34 32.73119 -117.19114 28 ft 9 kts 20°
2026-05-05 16:34 32.73182 -117.19084 26 ft 11 kts 21°
2026-05-05 16:34 32.73255 -117.19045 26 ft 12 kts 38°
2026-05-05 16:35 32.73250 -117.18954 25 ft 11 kts 105°
2026-05-05 16:35 32.73228 -117.18864 30 ft 11 kts 107°
2026-05-05 16:35 32.73207 -117.18776 30 ft 11 kts 105°
2026-05-05 16:35 32.73186 -117.18691 29 ft 11 kts 106°
2026-05-05 16:36 32.73165 -117.18602 31 ft 13 kts 106°
2026-05-05 16:36 32.73136 -117.18482 28 ft 17 kts 106°
2026-05-05 16:36 32.73099 -117.18332 30 ft 21 kts 105°
2026-05-05 16:36 32.73056 -117.18156 26 ft 23 kts 106°
2026-05-05 16:37 32.73013 -117.17975 25 ft 22 kts 105°
2026-05-05 16:37 32.72969 -117.17804 22 ft 18 kts 108°
2026-05-05 16:37 32.72950 -117.17724 22 ft 9 kts 96°
2026-05-05 16:37 32.72956 -117.17674 23 ft 0 kts 74°
2026-05-05 16:39 32.72966 -117.17639 24 ft 9 kts 69°
2026-05-05 16:39 32.73017 -117.17607 27 ft 9 kts 343°
2026-05-05 16:40 32.73043 -117.17678 24 ft 16 kts 285°
2026-05-05 16:40 32.73149 -117.18114 25 ft 92 kts 286°
2026-05-05 16:40 32.73382 -117.19085 60 ft 147 kts 287°
2026-05-05 16:40 32.73654 -117.20277 755 ft 146 kts 287°
2026-05-05 16:41 32.73975 -117.21432 1486 ft 151 kts 297°
2026-05-05 16:41 32.74621 -117.22487 2017 ft 167 kts 307°
2026-05-05 16:41 32.75364 -117.23693 2399 ft 195 kts 303°
2026-05-05 16:41 32.76167 -117.25114 2726 ft 221 kts 302°
2026-05-05 16:42 32.77074 -117.26741 3104 ft 249 kts 302°
2026-05-05 16:42 32.78049 -117.28482 4072 ft 252 kts 302°
2026-05-05 16:42 32.79024 -117.30211 5251 ft 252 kts 302°
2026-05-05 16:42 32.80021 -117.31957 6399 ft 258 kts 304°
2026-05-05 16:43 32.81102 -117.33681 7477 ft 262 kts 306°
2026-05-05 16:43 32.82223 -117.35405 8605 ft 266 kts 306°
2026-05-05 16:43 32.83364 -117.37153 9730 ft 268 kts 306°
2026-05-05 16:43 32.84518 -117.38926 10594 ft 279 kts 306°
2026-05-05 16:44 32.85748 -117.40827 10860 ft 308 kts 306°
2026-05-05 16:44 32.87117 -117.42947 11363 ft 326 kts 306°
2026-05-05 16:44 32.88518 -117.45117 12163 ft 334 kts 306°
2026-05-05 16:44 32.89939 -117.47321 13084 ft 338 kts 306°
2026-05-05 16:45 32.91363 -117.49533 13944 ft 343 kts 306°
2026-05-05 16:45 32.92824 -117.51806 14745 ft 347 kts 306°
2026-05-05 16:45 32.94298 -117.54100 15591 ft 350 kts 306°
2026-05-05 16:45 32.95781 -117.56412 16430 ft 353 kts 306°
2026-05-05 16:46 32.97284 -117.58757 17250 ft 357 kts 306°
2026-05-05 16:46 32.98802 -117.61126 18063 ft 361 kts 305°
2026-05-05 16:46 33.00332 -117.63516 18806 ft 365 kts 305°
2026-05-05 16:46 33.01885 -117.65943 19464 ft 371 kts 306°
2026-05-05 16:47 33.03461 -117.68407 20146 ft 375 kts 306°
2026-05-05 16:47 33.05048 -117.70890 20871 ft 378 kts 305°
2026-05-05 16:47 33.06688 -117.73358 21584 ft 383 kts 310°
2026-05-05 16:47 33.08660 -117.75522 22260 ft 388 kts 318°
2026-05-05 16:48 33.10763 -117.77570 22938 ft 392 kts 319°
2026-05-05 16:48 33.12866 -117.79610 23600 ft 396 kts 318°
2026-05-05 16:48 33.14996 -117.81722 24158 ft 400 kts 317°
2026-05-05 16:48 33.17126 -117.83876 24724 ft 403 kts 316°
2026-05-05 16:49 33.19267 -117.86061 25286 ft 406 kts 316°
2026-05-05 16:49 33.21446 -117.88245 25777 ft 412 kts 317°
2026-05-05 16:49 33.23683 -117.90432 26284 ft 417 kts 317°
2026-05-05 16:49 33.25941 -117.92621 26835 ft 419 kts 317°
2026-05-05 16:50 33.28216 -117.94825 27362 ft 423 kts 317°
2026-05-05 16:50 33.30506 -117.97049 27850 ft 426 kts 316°
2026-05-05 16:50 33.32813 -117.99298 28343 ft 430 kts 316°
2026-05-05 16:50 33.35142 -118.01573 28802 ft 433 kts 316°
2026-05-05 16:51 33.37485 -118.03866 29269 ft 436 kts 316°
2026-05-05 16:51 33.39841 -118.06175 29674 ft 442 kts 316°
2026-05-05 16:51 33.42235 -118.08524 30005 ft 447 kts 317°
2026-05-05 16:51 33.44646 -118.10888 30417 ft 448 kts 317°
2026-05-05 16:52 33.47065 -118.13262 30808 ft 450 kts 316°
2026-05-05 16:52 33.49484 -118.15638 31208 ft 451 kts 316°
2026-05-05 16:52 33.51087 -118.17213 31534 ft 450 kts 316°
2026-05-05 16:52 33.53507 -118.19593 32028 ft 449 kts 316°
2026-05-05 16:53 33.55916 -118.21964 32505 ft 449 kts 316°
2026-05-05 16:53 33.59336 -118.24796 33021 ft 457 kts 330°
2026-05-05 16:53 33.62243 -118.26384 33417 ft 459 kts 332°
2026-05-05 16:53 33.65173 -118.27899 33828 ft 459 kts 332°
2026-05-05 16:54 33.68094 -118.29426 34193 ft 458 kts 332°
2026-05-05 16:54 33.70059 -118.30480 34419 ft 458 kts 331°
2026-05-05 16:54 33.72956 -118.32068 34780 ft 457 kts 331°
2026-05-05 16:54 33.75835 -118.33662 35152 ft 455 kts 330°
2026-05-05 16:55 33.78696 -118.35196 35487 ft 456 kts 333°
2026-05-05 16:55 33.81620 -118.36668 35793 ft 456 kts 334°
2026-05-05 16:55 33.84559 -118.38116 36129 ft 455 kts 334°
2026-05-05 16:55 33.87474 -118.39556 36494 ft 453 kts 334°
2026-05-05 16:56 33.90383 -118.41009 36798 ft 452 kts 333°
2026-05-05 16:56 33.93288 -118.42474 37061 ft 453 kts 333°
2026-05-05 16:56 33.96193 -118.43946 37345 ft 452 kts 333°
2026-05-05 16:56 33.99096 -118.45414 37709 ft 452 kts 334°
2026-05-05 16:57 34.02125 -118.46473 37964 ft 459 kts 348°
2026-05-05 16:57 34.05310 -118.46986 38040 ft 464 kts 349°
2026-05-05 16:57 34.11720 -118.47851 38023 ft 462 kts 350°
2026-05-05 16:58 34.18074 -118.48737 38021 ft 457 kts 349°
2026-05-05 16:58 34.24379 -118.49681 38034 ft 454 kts 349°
2026-05-05 16:59 34.30631 -118.50646 38037 ft 453 kts 349°
2026-05-05 16:59 34.36874 -118.51615 38028 ft 452 kts 349°
2026-05-05 17:00 34.43134 -118.52586 38041 ft 456 kts 350°
2026-05-05 17:00 34.49469 -118.53568 37997 ft 460 kts 350°
2026-05-05 17:01 34.55824 -118.54552 37995 ft 461 kts 350°
2026-05-05 17:01 34.62186 -118.55539 38005 ft 461 kts 350°
2026-05-05 17:02 34.68554 -118.56529 38011 ft 460 kts 350°
2026-05-05 17:02 34.74861 -118.57511 38008 ft 459 kts 351°
2026-05-05 17:03 34.81195 -118.58499 38008 ft 458 kts 350°
2026-05-05 17:03 34.87504 -118.59485 38025 ft 456 kts 350°
2026-05-05 17:04 34.93800 -118.60470 38034 ft 455 kts 350°
2026-05-05 17:04 35.00048 -118.61605 38020 ft 452 kts 340°
2026-05-05 17:05 35.02876 -118.63185 38045 ft 445 kts 323°
2026-05-05 17:05 35.05313 -118.65490 38057 ft 443 kts 319°
2026-05-05 17:05 35.10016 -118.70365 38050 ft 443 kts 319°
2026-05-05 17:06 35.14721 -118.75240 38046 ft 444 kts 319°
2026-05-05 17:06 35.19467 -118.80085 38055 ft 445 kts 320°
2026-05-05 17:07 35.24226 -118.84918 38053 ft 444 kts 320°
2026-05-05 17:07 35.28981 -118.89754 38056 ft 445 kts 320°
2026-05-05 17:08 35.33743 -118.94606 38056 ft 445 kts 320°
2026-05-05 17:08 35.38462 -118.99425 38053 ft 444 kts 320°
2026-05-05 17:09 35.43229 -119.04299 38056 ft 443 kts 320°
2026-05-05 17:09 35.47947 -119.09110 38058 ft 444 kts 323°
2026-05-05 17:10 35.50641 -119.11043 38062 ft 443 kts 336°
2026-05-05 17:10 35.53439 -119.12516 38058 ft 444 kts 337°
2026-05-05 17:10 35.59129 -119.15464 38057 ft 444 kts 337°
2026-05-05 17:11 35.64805 -119.18455 38062 ft 442 kts 337°
2026-05-05 17:11 35.70444 -119.21475 38062 ft 441 kts 337°
2026-05-05 17:12 35.76053 -119.24500 38063 ft 440 kts 337°
2026-05-05 17:12 35.81655 -119.27528 38064 ft 438 kts 338°
2026-05-05 17:13 35.87238 -119.30546 38058 ft 437 kts 338°
2026-05-05 17:13 35.92773 -119.33543 38060 ft 437 kts 338°
2026-05-05 17:14 35.98330 -119.36556 38061 ft 436 kts 338°
2026-05-05 17:14 36.03888 -119.39576 38061 ft 436 kts 338°
2026-05-05 17:15 36.09453 -119.42603 38052 ft 436 kts 338°
2026-05-05 17:15 36.15014 -119.45632 38055 ft 438 kts 338°
2026-05-05 17:16 36.20592 -119.48677 38052 ft 438 kts 339°
2026-05-05 17:16 36.26175 -119.51728 38063 ft 439 kts 338°
2026-05-05 17:17 36.31755 -119.54784 38058 ft 438 kts 339°
2026-05-05 17:17 36.37276 -119.57811 38051 ft 437 kts 339°
2026-05-05 17:18 36.42860 -119.60877 38061 ft 436 kts 339°
2026-05-05 17:18 36.48367 -119.63906 38057 ft 435 kts 339°
2026-05-05 17:19 36.53929 -119.66970 38053 ft 434 kts 339°
2026-05-05 17:19 36.59425 -119.70006 38075 ft 436 kts 339°
2026-05-05 17:20 36.64726 -119.73788 38078 ft 441 kts 331°
2026-05-05 17:20 36.69840 -119.78011 38060 ft 438 kts 330°
2026-05-05 17:21 36.74931 -119.82173 38063 ft 436 kts 331°
2026-05-05 17:22 36.82586 -119.88280 38056 ft 435 kts 332°
2026-05-05 17:22 36.87675 -119.92314 37666 ft 441 kts 332°
2026-05-05 17:22 36.90263 -119.94369 37081 ft 440 kts 333°
2026-05-05 17:23 36.92838 -119.96418 36437 ft 439 kts 334°
2026-05-05 17:23 36.95412 -119.98470 35726 ft 438 kts 335°
2026-05-05 17:23 36.97981 -120.00518 35005 ft 438 kts 336°
2026-05-05 17:23 37.00553 -120.02570 34319 ft 438 kts 336°
2026-05-05 17:24 37.03101 -120.04607 33725 ft 433 kts 337°
2026-05-05 17:24 37.05633 -120.06632 33120 ft 428 kts 337°
2026-05-05 17:24 37.08117 -120.08623 32538 ft 421 kts 337°
2026-05-05 17:24 37.10560 -120.10601 32114 ft 414 kts 336°
2026-05-05 17:25 37.12956 -120.12581 31537 ft 410 kts 336°
2026-05-05 17:25 37.14567 -120.13869 31201 ft 406 kts 336°
2026-05-05 17:25 37.17712 -120.16348 30547 ft 399 kts 336°
2026-05-05 17:25 37.20048 -120.18196 30052 ft 396 kts 336°
2026-05-05 17:26 37.22357 -120.20036 29493 ft 391 kts 336°
2026-05-05 17:26 37.24637 -120.21865 28992 ft 386 kts 335°
2026-05-05 17:26 37.26883 -120.23673 28498 ft 380 kts 335°
2026-05-05 17:26 37.29098 -120.25447 28039 ft 375 kts 336°
2026-05-05 17:27 37.31290 -120.27161 27585 ft 370 kts 336°
2026-05-05 17:27 37.33470 -120.28850 27113 ft 366 kts 336°
2026-05-05 17:27 37.35629 -120.30522 26634 ft 363 kts 336°
2026-05-05 17:27 37.37771 -120.32185 26160 ft 360 kts 336°
2026-05-05 17:28 37.39893 -120.33837 25707 ft 358 kts 336°
2026-05-05 17:28 37.41999 -120.35480 25235 ft 355 kts 335°
2026-05-05 17:28 37.44096 -120.37117 24772 ft 353 kts 335°
2026-05-05 17:28 37.46175 -120.38742 24330 ft 351 kts 335°
2026-05-05 17:29 37.48211 -120.40453 23890 ft 353 kts 330°
2026-05-05 17:29 37.50140 -120.42369 23409 ft 354 kts 327°
2026-05-05 17:29 37.52011 -120.44320 22901 ft 352 kts 327°
2026-05-05 17:29 37.53892 -120.46273 22432 ft 349 kts 327°
2026-05-05 17:30 37.55777 -120.48194 22003 ft 345 kts 328°
2026-05-05 17:30 37.57646 -120.50077 21538 ft 343 kts 327°
2026-05-05 17:30 37.59507 -120.51949 21085 ft 341 kts 327°
2026-05-05 17:30 37.61354 -120.53804 20742 ft 338 kts 327°
2026-05-05 17:31 37.63196 -120.55647 20410 ft 339 kts 327°
2026-05-05 17:31 37.65064 -120.57514 20073 ft 345 kts 327°
2026-05-05 17:31 37.66956 -120.59410 19733 ft 347 kts 327°
2026-05-05 17:31 37.68834 -120.61296 19393 ft 344 kts 327°
2026-05-05 17:32 37.70690 -120.63161 19050 ft 340 kts 327°
2026-05-05 17:32 37.72529 -120.65010 18717 ft 336 kts 326°
2026-05-05 17:32 37.74356 -120.66847 18384 ft 334 kts 326°
2026-05-05 17:32 37.76169 -120.68670 18007 ft 333 kts 326°
2026-05-05 17:33 37.77981 -120.70494 17653 ft 332 kts 326°
2026-05-05 17:33 37.79785 -120.72311 17310 ft 332 kts 326°
2026-05-05 17:33 37.81589 -120.74128 16982 ft 331 kts 326°
2026-05-05 17:33 37.83395 -120.75949 16642 ft 331 kts 326°
2026-05-05 17:34 37.85192 -120.77763 16316 ft 330 kts 326°
2026-05-05 17:34 37.86992 -120.79584 15968 ft 331 kts 326°
2026-05-05 17:34 37.88764 -120.81382 15626 ft 331 kts 326°
2026-05-05 17:34 37.90585 -120.83232 15297 ft 331 kts 326°
2026-05-05 17:35 37.92350 -120.85028 14955 ft 328 kts 326°
2026-05-05 17:35 37.94119 -120.86830 14651 ft 325 kts 326°
2026-05-05 17:35 37.95870 -120.88613 14327 ft 321 kts 326°
2026-05-05 17:35 37.97600 -120.90377 14009 ft 318 kts 326°
2026-05-05 17:36 37.99320 -120.92130 13669 ft 315 kts 326°
2026-05-05 17:36 38.01019 -120.93862 13323 ft 312 kts 326°
2026-05-05 17:36 38.02707 -120.95584 13005 ft 309 kts 326°
2026-05-05 17:36 38.04377 -120.97289 12682 ft 307 kts 326°
2026-05-05 17:37 38.06031 -120.98978 12372 ft 304 kts 326°
2026-05-05 17:37 38.07144 -121.00118 12173 ft 305 kts 325°
2026-05-05 17:37 38.09152 -121.02672 11785 ft 313 kts 315°
2026-05-05 17:37 38.10557 -121.04809 11475 ft 315 kts 314°
2026-05-05 17:38 38.11953 -121.06962 11169 ft 316 kts 314°
2026-05-05 17:38 38.13354 -121.09095 10844 ft 312 kts 315°
2026-05-05 17:38 38.14746 -121.11180 10555 ft 304 kts 315°
2026-05-05 17:38 38.16094 -121.13182 10237 ft 293 kts 316°
2026-05-05 17:39 38.16964 -121.14471 10042 ft 286 kts 316°
2026-05-05 17:39 38.18240 -121.16359 9741 ft 279 kts 316°
2026-05-05 17:39 38.19502 -121.18213 9447 ft 276 kts 316°
2026-05-05 17:39 38.20750 -121.20048 9161 ft 272 kts 316°
2026-05-05 17:40 38.21985 -121.21838 9008 ft 266 kts 318°
2026-05-05 17:40 38.23269 -121.23507 8876 ft 263 kts 320°
2026-05-05 17:40 38.24578 -121.25144 8767 ft 263 kts 320°
2026-05-05 17:40 38.25890 -121.26779 8667 ft 264 kts 320°
2026-05-05 17:41 38.27197 -121.28413 8581 ft 264 kts 320°
2026-05-05 17:41 38.28506 -121.30057 8469 ft 264 kts 320°
2026-05-05 17:41 38.29814 -121.31705 8355 ft 264 kts 319°
2026-05-05 17:41 38.31115 -121.33349 8253 ft 262 kts 319°
2026-05-05 17:42 38.32405 -121.34981 8155 ft 260 kts 319°
2026-05-05 17:42 38.33679 -121.36596 8071 ft 258 kts 319°
2026-05-05 17:42 38.34953 -121.38213 7963 ft 259 kts 319°
2026-05-05 17:42 38.36228 -121.39830 7842 ft 258 kts 319°
2026-05-05 17:43 38.37499 -121.41444 7756 ft 257 kts 319°
2026-05-05 17:43 38.38747 -121.43032 7670 ft 256 kts 319°
2026-05-05 17:43 38.40002 -121.44629 7580 ft 255 kts 318°
2026-05-05 17:43 38.41257 -121.46226 7479 ft 255 kts 318°
2026-05-05 17:44 38.42507 -121.47818 7388 ft 255 kts 318°
2026-05-05 17:44 38.43766 -121.49421 7290 ft 255 kts 318°
2026-05-05 17:44 38.45026 -121.51027 7201 ft 257 kts 318°
2026-05-05 17:44 38.46297 -121.52648 7087 ft 259 kts 318°
2026-05-05 17:45 38.47576 -121.54266 6971 ft 260 kts 320°
2026-05-05 17:45 38.48968 -121.55749 6780 ft 261 kts 324°
2026-05-05 17:45 38.50403 -121.57161 6574 ft 258 kts 324°
2026-05-05 17:45 38.51813 -121.58546 6382 ft 254 kts 324°
2026-05-05 17:46 38.53194 -121.59918 6179 ft 251 kts 323°
2026-05-05 17:46 38.54576 -121.61301 5989 ft 252 kts 323°
2026-05-05 17:46 38.55951 -121.62683 5789 ft 252 kts 323°
2026-05-05 17:46 38.57315 -121.64053 5626 ft 253 kts 323°
2026-05-05 17:47 38.58775 -121.65304 5414 ft 255 kts 340°
2026-05-05 17:47 38.60474 -121.65916 5229 ft 252 kts 345°
2026-05-05 17:47 38.62147 -121.66559 5043 ft 251 kts 345°
2026-05-05 17:47 38.63830 -121.67164 4820 ft 250 kts 344°
2026-05-05 17:48 38.65487 -121.67775 4611 ft 247 kts 344°
2026-05-05 17:48 38.67121 -121.68390 4441 ft 243 kts 344°
2026-05-05 17:48 38.68741 -121.69003 4237 ft 241 kts 343°
2026-05-05 17:48 38.70334 -121.69616 4037 ft 236 kts 343°
2026-05-05 17:49 38.71895 -121.70151 3848 ft 229 kts 352°
2026-05-05 17:49 38.73471 -121.70259 3674 ft 224 kts 359°
2026-05-05 17:49 38.75006 -121.70245 3536 ft 220 kts
2026-05-05 17:49 38.76550 -121.70211 3359 ft 224 kts
2026-05-05 17:50 38.78112 -121.70336 3247 ft 226 kts 349°
2026-05-05 17:50 38.79668 -121.70602 3060 ft 231 kts 358°
2026-05-05 17:50 38.81265 -121.70395 2931 ft 230 kts
2026-05-05 17:50 38.82847 -121.70164 2808 ft 227 kts
2026-05-05 17:51 38.84411 -121.70119 2739 ft 224 kts
2026-05-05 17:51 38.85963 -121.70072 2669 ft 222 kts
2026-05-05 17:51 38.87489 -121.69919 2640 ft 216 kts
2026-05-05 17:51 38.88979 -121.69809 2525 ft 215 kts
2026-05-05 17:52 38.90446 -121.69685 2299 ft 213 kts
2026-05-05 17:52 38.91861 -121.69288 2052 ft 207 kts 33°
2026-05-05 17:52 38.92671 -121.67882 1872 ft 193 kts 77°
2026-05-05 17:52 38.92712 -121.66243 1826 ft 177 kts 103°
2026-05-05 17:53 38.92225 -121.64885 1817 ft 165 kts 128°
2026-05-05 17:53 38.91368 -121.63940 1812 ft 162 kts 153°
2026-05-05 17:53 38.90359 -121.63393 1814 ft 153 kts 159°
2026-05-05 17:53 38.89384 -121.62919 1785 ft 149 kts 159°
2026-05-05 17:54 38.88410 -121.62451 1807 ft 150 kts 159°
2026-05-05 17:54 38.87461 -121.61996 1800 ft 142 kts 159°
2026-05-05 17:54 38.86534 -121.61551 1802 ft 142 kts 159°
2026-05-05 17:54 38.85611 -121.61109 1802 ft 142 kts 159°
2026-05-05 17:55 38.84688 -121.60667 1791 ft 141 kts 159°
2026-05-05 17:55 38.83772 -121.60228 1788 ft 140 kts 159°
2026-05-05 17:55 38.82844 -121.59888 1784 ft 138 kts 179°
2026-05-05 17:55 38.81887 -121.59936 1815 ft 141 kts 181°
2026-05-05 17:56 38.80908 -121.59952 1830 ft 137 kts 181°
2026-05-05 17:56 38.79971 -121.59967 1797 ft 132 kts 181°
2026-05-05 17:56 38.79045 -121.59981 1694 ft 134 kts 181°
2026-05-05 17:56 38.78110 -121.59996 1507 ft 134 kts 180°
2026-05-05 17:57 38.77181 -121.60010 1329 ft 133 kts 180°
2026-05-05 17:57 38.76261 -121.60025 1154 ft 132 kts 180°
2026-05-05 17:57 38.75340 -121.60039 970 ft 132 kts 180°
2026-05-05 17:57 38.74440 -121.60053 793 ft 131 kts 180°
2026-05-05 17:58 38.73530 -121.60067 630 ft 133 kts 180°
2026-05-05 17:58 38.72618 -121.60076 482 ft 130 kts 180°
2026-05-05 17:58 38.71724 -121.60081 302 ft 126 kts 180°
2026-05-05 17:58 38.70847 -121.60109 116 ft 126 kts 181°
2026-05-05 17:59 38.70000 -121.60119 36 ft 110 kts 181°
2026-05-05 17:59 38.69360 -121.60133 29 ft 71 kts 180°
2026-05-05 17:59 38.69069 -121.60138 35 ft 25 kts 181°
2026-05-05 17:59 38.68899 -121.60139 33 ft 23 kts 181°
2026-05-05 18:00 38.68740 -121.60143 35 ft 23 kts 181°
2026-05-05 18:00 38.68571 -121.60146 31 ft 27 kts 180°
2026-05-05 18:00 38.68426 -121.60142 28 ft 13 kts 166°
2026-05-05 18:00 38.68386 -121.60056 29 ft 12 kts 88°
2026-05-05 18:01 38.68385 -121.60024 29 ft 0 kts 91°
2026-05-05 18:02 38.68385 -121.60022 29 ft 2 kts 91°
2026-05-05 18:02 38.68386 -121.59947 29 ft 12 kts 88°
2026-05-05 18:02 38.68439 -121.59885 31 ft 12 kts
2026-05-05 18:03 38.68522 -121.59884 31 ft 12 kts
2026-05-05 18:03 38.68624 -121.59883 30 ft 19 kts
2026-05-05 18:03 38.68766 -121.59880 31 ft 21 kts
2026-05-05 18:03 38.68907 -121.59878 33 ft 20 kts
2026-05-05 18:04 38.69044 -121.59875 31 ft 20 kts
2026-05-05 18:04 38.69183 -121.59873 31 ft 20 kts
2026-05-05 18:04 38.69320 -121.59870 30 ft 20 kts
2026-05-05 18:04 38.69433 -121.59869 31 ft 8 kts
2026-05-05 18:05 38.69464 -121.59815 32 ft 8 kts 88°
2026-05-05 18:05 38.69466 -121.59743 34 ft 8 kts 91°
2026-05-05 18:05 38.69465 -121.59666 35 ft 10 kts 90°
2026-05-05 18:05 38.69506 -121.59602 34 ft 11 kts
2026-05-05 18:06 38.69550 -121.59592 34 ft 6 kts 38°
2026-05-05 18:06 38.69552 -121.59557 34 ft 6 kts 96°
2026-05-05 18:06 38.69549 -121.59532 34 ft 0 kts 98°
2026-05-05 18:06 38.69549 -121.59529 34 ft 0 kts 98°